CSN207 ZGSZ-WSSS

Flight info

Callsign CSN207
Flight time N/A
Altitude 36000
Route SIERA DCT ROCCA DCT ALLEY V32 EPDOS L642 ESPOB Q801 ESBUM Q802 ELALO
Aircraft A320/M-SDE3FGHIRWY/LB1

Departure

Time 2026-05-05 08:30
Airport Shenzhen Bao'an International Airport (ZGSZ)

Arrival

Time N/A
Airport Singapore Changi Airport (WSSS)
Time Latitude Longitude Altitude Speed Heading
2026-05-05 08:15 22.63490 113.80339 12 ft 0 kts 63°
2026-05-05 08:23 22.63481 113.80318 17 ft 4 kts 71°
2026-05-05 08:24 22.63475 113.80289 17 ft 4 kts 89°
2026-05-05 08:24 22.63479 113.80263 19 ft 4 kts 134°
2026-05-05 08:24 22.63486 113.80256 18 ft 0 kts 153°
2026-05-05 08:26 22.63486 113.80257 18 ft 1 kts 153°
2026-05-05 08:26 22.63427 113.80282 15 ft 17 kts 174°
2026-05-05 08:27 22.63363 113.80192 15 ft 17 kts 247°
2026-05-05 08:27 22.63313 113.80070 15 ft 20 kts 245°
2026-05-05 08:27 22.63258 113.80001 15 ft 10 kts 215°
2026-05-05 08:27 22.63190 113.79973 15 ft 11 kts 187°
2026-05-05 08:28 22.63118 113.79989 15 ft 11 kts 149°
2026-05-05 08:28 22.63048 113.80033 16 ft 13 kts 149°
2026-05-05 08:28 22.62947 113.80078 15 ft 21 kts 156°
2026-05-05 08:28 22.62806 113.80146 15 ft 23 kts 156°
2026-05-05 08:29 22.62654 113.80197 15 ft 23 kts 199°
2026-05-05 08:29 22.62622 113.80056 16 ft 20 kts 305°
2026-05-05 08:29 22.62818 113.79935 15 ft 60 kts 332°
2026-05-05 08:30 22.64234 113.79155 16 ft 159 kts 333°
2026-05-05 08:30 22.65198 113.78602 649 ft 146 kts 333°
2026-05-05 08:30 22.66088 113.78083 1176 ft 157 kts 332°
2026-05-05 08:30 22.67048 113.77411 1272 ft 179 kts 324°
2026-05-05 08:31 22.68117 113.76444 1412 ft 219 kts 316°
2026-05-05 08:31 22.69257 113.75224 2105 ft 238 kts 316°
2026-05-05 08:31 22.70458 113.73943 3104 ft 244 kts 315°
2026-05-05 08:31 22.71677 113.72641 4173 ft 248 kts 314°
2026-05-05 08:32 22.72911 113.71321 5013 ft 252 kts 313°
2026-05-05 08:32 22.74161 113.69980 5732 ft 254 kts 313°
2026-05-05 08:32 22.75422 113.68629 6474 ft 256 kts 310°
2026-05-05 08:32 22.76414 113.67049 7143 ft 253 kts 289°
2026-05-05 08:33 22.76775 113.65204 7830 ft 250 kts 267°
2026-05-05 08:33 22.76484 113.63377 8540 ft 250 kts 247°
2026-05-05 08:33 22.75713 113.61695 9267 ft 251 kts 242°
2026-05-05 08:33 22.74730 113.60136 9968 ft 253 kts 223°
2026-05-05 08:34 22.73184 113.59214 10538 ft 262 kts 197°
2026-05-05 08:34 22.71312 113.59223 10704 ft 291 kts 168°
2026-05-05 08:34 22.69980 113.59697 10784 ft 308 kts 164°
2026-05-05 08:34 22.67194 113.60826 10946 ft 336 kts 162°
2026-05-05 08:35 22.64942 113.61775 11065 ft 356 kts 162°
2026-05-05 08:35 22.62571 113.62776 11184 ft 374 kts 162°
2026-05-05 08:35 22.60096 113.63810 11351 ft 388 kts 162°
2026-05-05 08:35 22.58410 113.64508 11608 ft 392 kts 162°
2026-05-05 08:36 22.55833 113.65515 12069 ft 395 kts 168°
2026-05-05 08:36 22.53124 113.65920 12550 ft 393 kts 184°
2026-05-05 08:36 22.50432 113.65517 13073 ft 391 kts 199°
2026-05-05 08:36 22.47948 113.64357 13620 ft 389 kts 214°
2026-05-05 08:37 22.45661 113.62792 14123 ft 391 kts 215°
2026-05-05 08:37 22.43361 113.61208 14603 ft 394 kts 216°
2026-05-05 08:37 22.41041 113.59612 15086 ft 396 kts 216°
2026-05-05 08:37 22.38716 113.58015 15557 ft 398 kts 216°
2026-05-05 08:38 22.36370 113.56403 16032 ft 400 kts 216°
2026-05-05 08:38 22.34017 113.54785 16491 ft 402 kts 216°
2026-05-05 08:38 22.31652 113.53162 16920 ft 405 kts 216°
2026-05-05 08:38 22.29267 113.51531 17370 ft 407 kts 216°
2026-05-05 08:39 22.26847 113.49926 17806 ft 411 kts 212°
2026-05-05 08:39 22.24186 113.48746 18220 ft 419 kts 200°
2026-05-05 08:39 22.21278 113.48188 18567 ft 429 kts 188°
2026-05-05 08:39 22.18274 113.48320 18880 ft 439 kts 175°
2026-05-05 08:40 22.15294 113.49164 19199 ft 448 kts 166°
2026-05-05 08:40 22.12332 113.50257 19522 ft 450 kts 166°
2026-05-05 08:40 22.09364 113.51352 19838 ft 453 kts 165°
2026-05-05 08:40 22.06409 113.52442 20141 ft 455 kts 166°
2026-05-05 08:41 22.03400 113.53544 20451 ft 457 kts 166°
2026-05-05 08:41 22.00408 113.54617 20743 ft 458 kts 168°
2026-05-05 08:41 21.97307 113.55339 21031 ft 455 kts 177°
2026-05-05 08:41 21.94150 113.55600 21310 ft 454 kts 181°
2026-05-05 08:42 21.90982 113.55784 21582 ft 456 kts 181°
2026-05-05 08:42 21.87801 113.55971 21851 ft 458 kts 181°
2026-05-05 08:42 21.84617 113.56165 22113 ft 460 kts 181°
2026-05-05 08:42 21.81410 113.56366 22359 ft 462 kts 181°
2026-05-05 08:43 21.78192 113.56569 22596 ft 464 kts 181°
2026-05-05 08:43 21.74960 113.56771 22822 ft 466 kts 181°
2026-05-05 08:43 21.71719 113.56973 23090 ft 467 kts 181°
2026-05-05 08:43 21.68479 113.57174 23426 ft 466 kts 181°
2026-05-05 08:44 21.65239 113.57373 23713 ft 466 kts 181°
2026-05-05 08:44 21.62000 113.57568 23999 ft 465 kts 181°
2026-05-05 08:44 21.58768 113.57757 24281 ft 465 kts 181°
2026-05-05 08:44 21.55537 113.57987 24559 ft 467 kts 178°
2026-05-05 08:45 21.52342 113.58665 24848 ft 472 kts 168°
2026-05-05 08:45 21.49241 113.59900 25125 ft 477 kts 161°
2026-05-05 08:45 21.46233 113.61306 25411 ft 477 kts 161°
2026-05-05 08:45 21.43187 113.62719 25711 ft 477 kts 161°
2026-05-05 08:46 21.40142 113.64124 26039 ft 476 kts 161°
2026-05-05 08:46 21.37094 113.65525 26372 ft 476 kts 161°
2026-05-05 08:46 21.34052 113.66922 26698 ft 475 kts 161°
2026-05-05 08:46 21.31014 113.68317 27056 ft 475 kts 161°
2026-05-05 08:47 21.27979 113.69713 27379 ft 475 kts 161°
2026-05-05 08:47 21.24946 113.71108 27704 ft 474 kts 161°
2026-05-05 08:47 21.21946 113.72487 28042 ft 474 kts 161°
2026-05-05 08:47 21.18900 113.73885 28376 ft 473 kts 161°
2026-05-05 08:48 21.15873 113.75272 28742 ft 473 kts 161°
2026-05-05 08:48 21.12853 113.76640 29092 ft 471 kts 164°
2026-05-05 08:48 21.09739 113.77643 29448 ft 464 kts 174°
2026-05-05 08:48 21.06566 113.78104 29808 ft 456 kts 183°
2026-05-05 08:49 21.03421 113.78024 30147 ft 449 kts 192°
2026-05-05 08:49 21.00324 113.77653 30468 ft 448 kts 192°
2026-05-05 08:49 20.97220 113.77296 30796 ft 448 kts 191°
2026-05-05 08:49 20.94125 113.76952 31114 ft 447 kts 191°
2026-05-05 08:50 20.91027 113.76615 31428 ft 447 kts 191°
2026-05-05 08:50 20.87942 113.76280 31747 ft 446 kts 191°
2026-05-05 08:50 20.84849 113.75941 31912 ft 447 kts 191°
2026-05-05 08:51 20.78675 113.75254 31941 ft 446 kts 191°
2026-05-05 08:51 20.72494 113.74555 31938 ft 446 kts 191°
2026-05-05 08:52 20.66352 113.73869 31936 ft 446 kts 191°
2026-05-05 08:52 20.60163 113.73179 31932 ft 447 kts 191°
2026-05-05 08:53 20.53979 113.72480 31933 ft 447 kts 191°
2026-05-05 08:53 20.47777 113.71789 31934 ft 447 kts 191°
2026-05-05 08:54 20.41579 113.71108 31933 ft 448 kts 191°
2026-05-05 08:54 20.35378 113.70421 31930 ft 448 kts 191°
2026-05-05 08:55 20.29178 113.69736 31928 ft 448 kts 191°
2026-05-05 08:55 20.23018 113.69052 31926 ft 448 kts 191°
2026-05-05 08:56 20.16813 113.68361 31928 ft 448 kts 191°
2026-05-05 08:56 20.10604 113.67672 31923 ft 449 kts 191°
2026-05-05 08:57 20.04389 113.66979 31924 ft 449 kts 191°
2026-05-05 08:57 19.98176 113.66290 31924 ft 449 kts 190°
2026-05-05 08:58 19.91955 113.65607 32227 ft 450 kts 190°
2026-05-05 08:58 19.88840 113.65261 32570 ft 449 kts 190°
2026-05-05 08:58 19.85734 113.64918 32891 ft 449 kts 190°
2026-05-05 08:58 19.82631 113.64572 33205 ft 448 kts 190°
2026-05-05 08:59 19.79515 113.64226 33511 ft 448 kts 190°
2026-05-05 08:59 19.76415 113.63886 33794 ft 448 kts 190°
2026-05-05 08:59 19.73311 113.63547 33902 ft 449 kts 190°
2026-05-05 09:00 19.67107 113.62865 33921 ft 448 kts 190°
2026-05-05 09:00 19.60907 113.62183 33913 ft 448 kts 190°
2026-05-05 09:01 19.54702 113.61497 33913 ft 448 kts 190°
2026-05-05 09:01 19.48499 113.60811 33924 ft 448 kts 190°
2026-05-05 09:02 19.42324 113.60130 33913 ft 448 kts 190°
2026-05-05 09:02 19.36115 113.59448 33915 ft 448 kts 190°
2026-05-05 09:03 19.29906 113.58770 33911 ft 449 kts 190°
2026-05-05 09:03 19.23693 113.58093 33922 ft 449 kts 189°
2026-05-05 09:04 19.17488 113.57410 33917 ft 449 kts 189°
2026-05-05 09:04 19.11272 113.56734 33904 ft 449 kts 189°
2026-05-05 09:05 19.05047 113.56056 33904 ft 449 kts 189°
2026-05-05 09:05 18.98824 113.55368 33906 ft 449 kts 190°
2026-05-05 09:06 18.92670 113.54535 33906 ft 448 kts 192°
2026-05-05 09:06 18.86491 113.53595 33914 ft 449 kts 192°
2026-05-05 09:07 18.80308 113.52673 33907 ft 449 kts 191°
2026-05-05 09:07 18.74111 113.51787 33911 ft 449 kts 191°
2026-05-05 09:08 18.67910 113.50908 33905 ft 449 kts 191°
2026-05-05 09:08 18.61708 113.50025 33903 ft 449 kts 191°
2026-05-05 09:09 18.55694 113.48502 33906 ft 441 kts 207°
2026-05-05 09:09 18.50523 113.45189 33906 ft 434 kts 220°
2026-05-05 09:10 18.45637 113.41415 33898 ft 435 kts 220°
2026-05-05 09:10 18.40739 113.37651 33904 ft 436 kts 220°
2026-05-05 09:11 18.35847 113.33889 33905 ft 436 kts 220°
2026-05-05 09:11 18.30954 113.30120 33903 ft 436 kts 220°
2026-05-05 09:12 18.26061 113.26352 33899 ft 436 kts 220°
2026-05-05 09:12 18.21161 113.22585 33900 ft 436 kts 220°
2026-05-05 09:13 18.16287 113.18841 33901 ft 436 kts 220°
2026-05-05 09:13 18.11387 113.15072 33900 ft 436 kts 220°
2026-05-05 09:14 18.06483 113.11310 33900 ft 437 kts 220°
2026-05-05 09:14 18.01568 113.07554 33900 ft 437 kts 220°
2026-05-05 09:15 17.96653 113.03795 33901 ft 437 kts 220°
2026-05-05 09:15 17.91746 113.00034 33899 ft 437 kts 220°
2026-05-05 09:16 17.86840 112.96278 33897 ft 437 kts 220°
2026-05-05 09:16 17.81943 112.92492 33900 ft 440 kts 221°
2026-05-05 09:17 17.77014 112.88589 33898 ft 453 kts 221°
2026-05-05 09:17 17.71900 112.84532 33897 ft 462 kts 221°
2026-05-05 09:18 17.66747 112.80480 33896 ft 463 kts 220°
2026-05-05 09:18 17.61610 112.76461 33896 ft 464 kts 220°
2026-05-05 09:19 17.56440 112.72409 33896 ft 464 kts 221°
2026-05-05 09:19 17.51267 112.68349 33898 ft 465 kts 221°
2026-05-05 09:20 17.46085 112.64299 33898 ft 465 kts 221°
2026-05-05 09:20 17.40898 112.60251 33892 ft 465 kts 221°
2026-05-05 09:21 17.35706 112.56196 33893 ft 465 kts 221°
2026-05-05 09:21 17.30523 112.52130 33888 ft 466 kts 221°
2026-05-05 09:22 17.25326 112.48070 33892 ft 466 kts 221°
2026-05-05 09:22 17.20126 112.44021 33893 ft 466 kts 221°
2026-05-05 09:23 17.15799 112.40651 33886 ft 467 kts 221°
2026-05-05 09:23 17.10595 112.36591 33889 ft 467 kts 221°
2026-05-05 09:24 17.05385 112.32527 33886 ft 467 kts 221°
2026-05-05 09:24 17.00167 112.28466 33901 ft 468 kts 221°
2026-05-05 09:25 16.94912 112.24431 33899 ft 469 kts 220°
2026-05-05 09:25 16.89619 112.20446 33899 ft 469 kts 220°
2026-05-05 09:26 16.84321 112.16451 33901 ft 469 kts 220°
2026-05-05 09:26 16.79067 112.12473 33901 ft 469 kts 220°
2026-05-05 09:27 16.73767 112.08454 33901 ft 470 kts 220°
2026-05-05 09:27 16.68482 112.04450 33899 ft 470 kts 220°
2026-05-05 09:28 16.63179 112.00451 33893 ft 470 kts 220°
2026-05-05 09:28 16.57948 111.96500 33895 ft 471 kts 220°
2026-05-05 09:29 16.52581 111.92445 33896 ft 471 kts 220°
2026-05-05 09:29 16.47272 111.88444 33896 ft 471 kts 220°
2026-05-05 09:30 16.41997 111.84474 33895 ft 471 kts 219°
2026-05-05 09:30 16.36687 111.80479 33897 ft 471 kts 219°
2026-05-05 09:31 16.31372 111.76470 33895 ft 471 kts 219°
2026-05-05 09:31 16.26054 111.72471 33894 ft 471 kts 219°
2026-05-05 09:32 16.20739 111.68472 33899 ft 471 kts 219°
2026-05-05 09:32 16.15430 111.64477 33896 ft 471 kts 219°
2026-05-05 09:33 16.10114 111.60488 33901 ft 471 kts 219°
2026-05-05 09:33 16.04798 111.56502 33904 ft 470 kts 218°
2026-05-05 09:34 15.99490 111.52531 33908 ft 470 kts 218°
2026-05-05 09:34 15.94189 111.48557 33909 ft 469 kts 218°
2026-05-05 09:35 15.88931 111.44619 33917 ft 468 kts 218°
2026-05-05 09:35 15.81008 111.38684 33913 ft 467 kts 218°
2026-05-05 09:36 15.75738 111.34751 33908 ft 466 kts 218°
2026-05-05 09:36 15.70476 111.30824 33907 ft 465 kts 218°